FW8225 Weather Reports


Display with metric or nautical units.
time (UTC)temp
F
wind
direction
speed
MPH
gust
MPH
rain 1hr
in
rain 24hr
in
rain mn
in
humidity
%
barometer
mb
20260906205704 83 150 11.0 16.0 0.00 0.01 0.01 56 1014.0
20260906205200 83 144 12.0 15.0 0.00 0.01 0.01 57 1014.3
20260906204654 83 127 16.0 18.0 0.00 0.01 0.01 56 1014.3
20260906204149 82 178 9.0 15.0 0.00 0.01 0.01 59 1014.5
20260906203649 82 135 11.0 16.0 0.00 0.01 0.01 57 1014.5
20260906203144 82 189 8.0 10.0 0.00 0.01 0.01 59 1014.5
20260906202641 82 197 11.0 12.0 0.00 0.01 0.01 58 1014.5
20260906202139 82 161 8.0 14.0 0.00 0.01 0.01 57 1014.5
20260906201635 81 135 8.0 10.0 0.00 0.01 0.01 60 1014.9
20260906201134 81 145 11.0 16.0 0.00 0.01 0.01 61 1014.7
20260906200631 81 146 11.0 17.0 0.00 0.01 0.01 60 1014.9
20260906200126 80 155 6.0 12.0 0.00 0.01 0.01 62 1014.9
20260906195621 81 151 12.0 15.0 0.00 0.01 0.01 64 1014.9
20260906195118 81 149 11.0 13.0 0.00 0.01 0.01 61 1015.1
20260906194613 80 164 7.0 10.0 0.00 0.01 0.01 62 1014.9
20260906194108 80 178 12.0 15.0 0.00 0.01 0.01 63 1014.9
20260906193603 80 189 12.0 13.0 0.00 0.01 0.01 63 1015.1
20260906193058 80 191 10.0 14.0 0.00 0.01 0.01 63 1015.2
20260906192554 80 170 7.0 13.0 0.00 0.01 0.01 64 1015.1
20260906192053 80 144 11.0 13.0 0.00 0.01 0.01 62 1015.2
20260906191548 79 162 8.0 8.0 0.00 0.01 0.01 64 1015.4
20260906191047 79 164 11.0 15.0 0.00 0.01 0.01 63 1015.3
20260906190546 79 178 10.0 17.0 0.00 0.01 0.01 63 1015.4
20260906190042 79 147 10.0 12.0 0.00 0.01 0.01 65 1015.4
20260906185540 79 164 11.0 14.0 0.00 0.01 0.01 65 1015.7
20260906185039 79 187 11.0 14.0 0.00 0.01 0.01 62 1015.7
20260906184535 79 188 7.0 12.0 0.00 0.01 0.01 63 1015.7
20260906184030 78 152 8.0 11.0 0.00 0.01 0.01 65 1015.7
20260906183526 78 173 7.0 11.0 0.00 0.01 0.01 67 1015.7
20260906183022 77 173 9.0 13.0 0.00 0.01 0.01 68 1016.0
20260906182517 77 184 10.0 12.0 0.00 0.01 0.01 68 1016.0
20260906182013 77 177 13.0 18.0 0.00 0.01 0.01 65 1016.3
20260906181508 77 194 10.0 17.0 0.00 0.01 0.01 68 1016.4
20260906181004 76 192 13.0 18.0 0.00 0.01 0.01 66 1016.7
20260906180458 76 151 13.0 16.0 0.00 0.01 0.01 68 1016.5
20260906175956 76 162 14.0 16.0 0.00 0.01 0.01 70 1016.7
20260906175451 76 167 17.0 19.0 0.00 0.01 0.01 71 1016.7
20260906174949 76 191 11.0 17.0 0.00 0.01 0.01 71 1016.9
20260906174443 75 162 11.0 17.0 0.00 0.01 0.01 71 1017.0
20260906173939 75 186 11.0 17.0 0.00 0.01 0.01 70 1017.0
20260906173434 75 182 13.0 17.0 0.00 0.01 0.01 71 1017.1
20260906172933 75 170 13.0 16.0 0.00 0.01 0.01 73 1017.1
20260906172430 75 184 18.0 18.0 0.00 0.01 0.01 71 1017.1
20260906171925 75 178 8.0 19.0 0.00 0.01 0.01 73 1017.5
20260906171419 74 173 12.0 17.0 0.00 0.01 0.01 71 1017.2
20260906170915 74 177 15.0 19.0 0.00 0.01 0.01 70 1017.2
20260906170411 74 174 10.0 17.0 0.00 0.01 0.01 72 1017.2
20260906165908 74 186 13.0 15.0 0.00 0.01 0.01 72 1017.3
20260906165407 73 169 16.0 18.0 0.00 0.01 0.01 73 1017.2
20260906164902 73 164 13.0 19.0 0.00 0.01 0.01 74 1017.1
20260906164400 73 160 11.0 17.0 0.00 0.01 0.01 75 1017.5
20260906163856 73 157 13.0 18.0 0.00 0.01 0.01 73 1017.5
20260906163347 73 177 15.0 15.0 0.00 0.01 0.01 72 1017.5
20260906162845 73 160 13.0 17.0 0.00 0.01 0.01 73 1017.6
20260906162343 73 177 13.0 16.0 0.00 0.01 0.01 72 1017.3
20260906161839 73 150 15.0 16.0 0.00 0.01 0.01 72 1017.6
20260906161338 72 151 12.0 16.0 0.00 0.01 0.01 74 1017.7
20260906160837 72 157 6.0 12.0 0.00 0.01 0.01 73 1017.5
20260906160331 72 180 9.0 11.0 0.00 0.01 0.01 74 1017.8
20260906155829 71 192 9.0 10.0 0.00 0.01 0.01 75 1017.9
20260906155323 71 210 15.0 15.0 0.00 0.01 0.01 74 1018.0
20260906154820 71 174 7.0 11.0 0.00 0.01 0.01 75 1017.7
20260906154314 70 179 8.0 10.0 0.00 0.01 0.01 77 1017.8
20260906153812 70 172 8.0 9.0 0.00 0.01 0.01 77 1017.6
20260906153307 69 180 11.0 11.0 0.00 0.01 0.01 76 1017.8
20260906152802 69 182 6.0 13.0 0.00 0.01 0.01 75 1017.8
20260906152257 69 208 2.0 9.0 0.00 0.01 0.01 76 1017.9
20260906151756 69 191 5.0 10.0 0.00 0.01 0.01 77 1017.9
20260906151252 68 186 8.0 10.0 0.00 0.01 0.01 77 1017.9
20260906150747 68 204 8.0 9.0 0.00 0.01 0.01 77 1018.1
20260906150243 68 180 6.0 9.0 0.00 0.01 0.01 78 1017.9
20260906145742 68 212 8.0 9.0 0.00 0.01 0.01 77 1018.1
20260906145240 68 201 4.0 5.0 0.00 0.01 0.01 78 1018.1
20260906144736 67 189 5.0 6.0 0.00 0.01 0.01 80 1018.0
20260906144230 66 196 4.0 5.0 0.00 0.01 0.01 82 1017.9
20260906143729 65 161 3.0 4.0 0.00 0.01 0.01 84 1017.9
20260906143227 65 168 3.0 3.0 0.00 0.01 0.01 82 1018.0
20260906142726 65 226 2.0 3.0 0.00 0.01 0.01 83 1018.4
20260906142221 65 243 2.0 3.0 0.00 0.01 0.01 84 1018.5
20260906141720 65 197 0.0 2.0 0.00 0.01 0.01 84 1018.4
20260906141215 65 249 2.0 3.0 0.00 0.01 0.01 84 1018.6
20260906140715 65 256 2.0 3.0 0.00 0.01 0.01 84 1018.6
20260906140210 65 236 3.0 4.0 0.00 0.01 0.01 83 1018.8
20260906135706 65 309 0.0 1.0 0.00 0.01 0.01 85 1018.5
20260906135202 65 89 0.0 2.0 0.00 0.01 0.01 87 1018.5
20260906134658 64 123 5.0 5.0 0.00 0.01 0.01 89 1018.4
20260906134153 63 142 2.0 2.0 0.00 0.01 0.01 90 1018.4
20260906133649 63 98 3.0 3.0 0.00 0.01 0.01 90 1018.2
20260906133144 63 1 1.0 2.0 0.00 0.01 0.01 91 1018.1
20260906132639 63 114 2.0 4.0 0.00 0.01 0.01 91 1018.2
20260906132135 63 121 6.0 7.0 0.00 0.01 0.01 90 1017.8
20260906131630 63 101 3.0 5.0 0.00 0.01 0.01 90 1018.1
20260906131125 63 72 4.0 4.0 0.00 0.01 0.01 89 1018.4
20260906130621 63 10 4.0 5.0 0.00 0.01 0.01 89 1018.4
20260906130116 63 49 2.0 4.0 0.00 0.01 0.01 89 1018.2
20260906125613 63 103 4.0 4.0 0.00 0.01 0.01 90 1018.1
20260906125112 62 128 2.0 5.0 0.00 0.01 0.01 90 1018.1
20260906124608 62 109 6.0 9.0 0.00 0.01 0.01 91 1017.9
20260906124103 62 115 5.0 6.0 0.00 0.01 0.01 91 1017.9
20260906123602 62 113 6.0 9.0 0.00 0.01 0.01 91 1017.6
20260906123057 62 147 5.0 5.0 0.00 0.01 0.01 92 1017.5
20260906122556 62 121 4.0 4.0 0.00 0.01 0.01 92 1017.6
20260906122052 62 131 4.0 4.0 0.00 0.01 0.01 92 1017.7
20260906121548 62 229 0.0 2.0 0.00 0.01 0.01 92 1017.8
20260906121045 62 167 3.0 4.0 0.00 0.01 0.01 90 1017.9
20260906120539 62 348 0.0 4.0 0.00 0.01 0.01 91 1017.6
20260906120037 62 16 4.0 5.0 0.00 0.01 0.01 91 1017.7
20260906115536 62 45 2.0 4.0 0.00 0.01 0.01 90 1017.7
20260906115032 62 332 7.0 8.0 0.00 0.01 0.01 89 1017.7
20260906114526 63 1 1.0 2.0 0.00 0.01 0.01 89 1017.5
20260906114022 62 253 3.0 3.0 0.00 0.01 0.01 90 1017.5
20260906113520 62 156 2.0 5.0 0.00 0.01 0.01 90 1017.3
20260906113016 63 191 6.0 7.0 0.00 0.01 0.01 88 1017.2
20260906112511 63 158 7.0 8.0 0.00 0.01 0.01 87 1017.2
20260906112007 63 164 4.0 5.0 0.00 0.01 0.01 87 1017.5
20260906111501 63 269 0.0 2.0 0.00 0.01 0.01 86 1017.5
20260906110956 63 231 2.0 4.0 0.00 0.01 0.01 85 1017.7
20260906110450 63 330 2.0 4.0 0.00 0.01 0.01 84 1017.3
20260906105949 63 50 4.0 4.0 0.00 0.01 0.01 86 1017.2
20260906105445 63 302 5.0 5.0 0.00 0.01 0.01 86 1017.1
20260906104942 63 113 4.0 5.0 0.00 0.01 0.01 84 1017.0
20260906104440 64 234 2.0 3.0 0.00 0.01 0.01 84 1017.3
20260906103939 64 89 2.0 5.0 0.00 0.01 0.01 82 1017.2
20260906103438 64 130 4.0 5.0 0.00 0.01 0.01 81 1017.0
20260906102933 64 170 4.0 4.0 0.00 0.01 0.01 81 1017.1
20260906102433 64 109 5.0 6.0 0.00 0.01 0.01 80 1016.7
20260906101927 64 109 1.0 2.0 0.00 0.01 0.01 82 1016.8
20260906101423 64 104 2.0 4.0 0.00 0.01 0.01 83 1016.8
20260906100918 64 138 6.0 8.0 0.00 0.01 0.01 82 1016.9
20260906100417 64 164 5.0 6.0 0.00 0.01 0.01 81 1017.1
20260906095912 64 151 4.0 5.0 0.00 0.01 0.01 81 1016.8
20260906095408 64 143 4.0 4.0 0.00 0.01 0.01 80 1017.0
20260906094902 64 179 2.0 4.0 0.00 0.01 0.01 80 1017.0
20260906094357 64 199 3.0 3.0 0.00 0.01 0.01 81 1016.8
20260906093853 64 135 0.0 2.0 0.00 0.01 0.01 82 1016.8
20260906093349 63 202 0.0 2.0 0.00 0.01 0.01 83 1016.8
20260906092843 64 180 5.0 6.0 0.00 0.01 0.01 82 1016.7
20260906092337 64 117 4.0 5.0 0.00 0.01 0.01 81 1016.4
20260906091833 64 68 7.0 10.0 0.00 0.01 0.01 81 1016.3
20260906091329 64 95 10.0 11.0 0.00 0.01 0.01 79 1016.0
20260906090826 64 103 10.0 11.0 0.00 0.01 0.01 79 1016.2
20260906090324 64 103 10.0 14.0 0.00 0.01 0.01 79 1016.1
20260906085824 65 112 13.0 16.0 0.00 0.01 0.01 77 1016.2
20260906085318 65 124 18.0 20.0 0.00 0.01 0.01 77 1016.4
20260906084813 63 125 13.0 19.0 0.00 0.01 0.01 82 1016.4
20260906084312 64 137 14.0 15.0 0.00 0.01 0.01 82 1016.7
20260906083807 64 134 13.0 15.0 0.00 0.01 0.01 80 1016.7
20260906083303 65 130 13.0 16.0 0.00 0.01 0.01 77 1016.4
20260906082757 65 122 11.0 15.0 0.00 0.01 0.01 78 1016.8
20260906082252 65 111 10.0 15.0 0.00 0.01 0.01 78 1016.3
20260906081748 65 101 11.0 15.0 0.00 0.01 0.01 78 1016.4
20260906081243 65 108 12.0 16.0 0.00 0.01 0.01 79 1016.4
20260906080740 64 114 13.0 16.0 0.00 0.01 0.01 81 1016.4
20260906080236 64 112 14.0 16.0 0.00 0.01 0.01 83 1016.3
20260906075730 63 111 13.0 17.0 0.00 0.01 0.01 84 1016.3
20260906075230 63 111 14.0 15.0 0.00 0.01 0.01 86 1016.5
20260906074725 62 112 14.0 16.0 0.00 0.01 0.01 88 1016.5
20260906074225 62 114 10.0 14.0 0.00 0.01 0.01 90 1016.5
20260906073724 62 111 15.0 17.0 0.00 0.01 0.01 90 1016.8
20260906073220 62 109 14.0 17.0 0.00 0.01 0.01 90 1016.8
20260906072715 62 96 12.0 15.0 0.00 0.01 0.01 89 1016.4
20260906072211 62 74 10.0 12.0 0.00 0.01 0.01 89 1016.8
20260906071707 62 80 12.0 15.0 0.00 0.01 0.01 89 1016.7
20260906071206 62 75 15.0 15.0 0.00 0.01 0.01 90 1016.8
20260906070703 62 87 13.0 15.0 0.00 0.01 0.01 92 1016.8
20260906070158 62 87 14.0 16.0 0.00 0.01 0.01 92 1016.7
20260906065658 62 93 13.0 16.0 0.00 0.01 0.01 94 1016.8
20260906065154 62 84 11.0 15.0 0.00 0.01 0.01 95 1016.9
20260906064649 62 95 12.0 17.0 0.00 0.01 0.01 96 1017.0
20260906064144 61 94 11.0 18.0 0.00 0.01 0.01 97 1016.9
20260906063639 61 79 16.0 21.0 0.00 0.01 0.01 97 1017.1
20260906063135 61 88 17.0 26.0 0.00 0.01 0.01 98 1017.5
20260906062631 61 101 15.0 24.0 0.02 0.01 0.01 98 1017.5
20260906062129 61 94 23.0 27.0 0.00 0.00 0.00 98 1017.2
20260906061626 61 84 19.0 28.0 0.00 0.00 0.00 98 1017.5
20260906061125 61 82 21.0 25.0 0.00 0.00 0.00 98 1017.3
20260906060622 61 83 18.0 26.0 0.40 0.00 0.00 98 1017.5
20260906060119 61 98 18.0 25.0 0.54 0.00 0.00 98 1017.3
20260906055615 62 105 23.0 25.0 0.14 0.99 0.99 98 1017.2
20260906055109 62 92 13.0 21.0 0.19 0.98 0.98 98 1017.6
20260906054604 63 105 22.0 24.0 0.28 0.97 0.97 98 1017.6
20260906054059 63 106 18.0 19.0 0.17 0.94 0.94 97 1018.0
20260906053556 64 108 15.0 20.0 0.14 0.92 0.92 97 1017.8
20260906053051 64 107 17.0 22.0 0.12 0.91 0.91 97 1017.8
20260906052546 65 122 18.0 22.0 0.02 0.90 0.90 97 1017.9
20260906052044 65 119 17.0 22.0 0.00 0.89 0.89 98 1018.0
20260906051539 65 117 17.0 20.0 0.00 0.89 0.89 98 1018.2
20260906051034 65 128 14.0 15.0 0.00 0.89 0.89 98 1017.8
20260906050529 65 134 16.0 21.0 0.02 0.89 0.89 98 1018.2
20260906050024 65 144 15.0 20.0 0.02 0.89 0.89 98 1018.1
20260906045522 65 124 15.0 20.0 0.00 0.89 0.89 98 1017.9
20260906045018 65 127 17.0 19.0 0.00 0.89 0.89 98 1017.7
20260906044514 65 129 16.0 20.0 0.00 0.89 0.89 98 1017.7
20260906044010 65 126 17.0 22.0 0.00 0.89 0.89 98 1017.3
20260906043505 65 131 23.0 23.0 0.00 0.89 0.89 97 1017.2
20260906043001 65 127 16.0 18.0 0.07 0.89 0.89 97 1017.5
20260906042459 65 104 14.0 19.0 0.12 0.89 0.89 97 1017.7
20260906041959 65 122 19.0 20.0 0.07 0.87 0.87 97 1017.8
20260906041456 65 148 11.0 12.0 0.00 0.86 0.86 97 1018.1
20260906040955 65 72 7.0 10.0 0.05 0.86 0.86 97 1017.8
20260906040450 65 357 14.0 17.0 0.12 0.86 0.86 97 1017.8
20260906035946 65 342 14.0 15.0 0.26 0.85 0.85 97 1018.1
20260906035441 64 356 7.0 12.0 0.42 0.84 0.84 97 1018.8
20260906034936 64 338 6.0 8.0 0.85 0.81 0.81 96 1019.6
20260906034431 64 81 4.0 6.0 1.82 0.77 0.77 96 1019.7
20260906033927 64 232 7.0 13.0 2.27 0.62 0.62 96 1020.9
20260906033427 64 255 22.0 27.0 1.91 0.42 0.42 95 1021.2
20260906032923 64 240 23.0 36.0 1.16 0.24 0.24 95 1020.6
20260906032419 64 246 34.0 43.0 0.54 0.10 0.10 94 1019.8
20260906031913 63 234 29.0 36.0 0.24 0.04 0.04 92 1019.5
20260906031408 65 247 25.0 28.0 0.02 0.00 0.00 81 1018.9
20260906030903 66 290 17.0 22.0 0.00 0.00 0.00 78 1017.8
20260906030358 70 289 12.0 19.0 0.00 0.00 0.00 69 1017.3
20260906025853 71 324 17.0 22.0 0.00 0.00 0.00 62 1017.0
20260906025347 72 8 17.0 24.0 0.00 0.00 0.00 62 1016.8
20260906024845 71 15 13.0 20.0 0.00 0.00 0.00 65 1016.5
20260906024345 71 16 21.0 27.0 0.00 0.00 0.00 66 1015.7
20260906023840 71 31 14.0 23.0 0.00 0.00 0.00 68 1015.4
20260906023336 70 11 22.0 27.0 0.00 0.00 0.00 72 1015.3
20260906022832 70 27 24.0 28.0 0.00 0.00 0.00 72 1015.6
20260906022326 70 28 7.0 16.0 0.00 0.00 0.00 70 1015.7
20260906021822 74 16 18.0 30.0 0.00 0.00 0.00 62 1015.4
20260906021321 78 58 12.0 24.0 0.00 0.00 0.00 51 1015.1
20260906020816 75 61 9.0 11.0 0.00 0.00 0.00 55 1014.9
20260906020315 75 42 4.0 14.0 0.00 0.00 0.00 54 1015.2
20260906015810 75 42 14.0 16.0 0.00 0.00 0.00 53 1014.8
20260906015308 78 42 15.0 17.0 0.00 0.00 0.00 49 1014.9
20260906014803 80 58 7.0 10.0 0.00 0.00 0.00 47 1014.6
20260906014259 80 133 14.0 17.0 0.00 0.00 0.00 47 1014.1
20260906013754 80 134 13.0 19.0 0.00 0.00 0.00 45 1013.9
20260906013249 80 138 15.0 21.0 0.00 0.00 0.00 44 1013.9
20260906012745 80 144 17.0 19.0 0.00 0.00 0.00 43 1013.8
20260906012240 79 150 21.0 22.0 0.00 0.00 0.00 41 1013.6
20260906011735 79 144 19.0 20.0 0.00 0.00 0.00 39 1013.5
20260906011234 79 156 15.0 20.0 0.00 0.00 0.00 41 1013.1
20260906010730 79 161 22.0 23.0 0.00 0.00 0.00 42 1012.9
20260906010226 78 157 19.0 25.0 0.00 0.00 0.00 44 1013.1
20260906005721 77 160 16.0 25.0 0.00 0.00 0.00 46 1013.1
20260906005220 76 163 19.0 23.0 0.00 0.00 0.00 48 1013.2
20260906004719 76 146 21.0 24.0 0.00 0.00 0.00 48 1013.3
20260906004215 76 143 26.0 28.0 0.00 0.00 0.00 48 1013.7
20260906003709 75 153 21.0 26.0 0.00 0.00 0.00 50 1013.7
20260906003200 74 155 19.0 26.0 0.00 0.00 0.00 53 1014.1
20260906002700 73 158 26.0 31.0 0.00 0.00 0.00 54 1013.9
20260906002154 73 150 25.0 32.0 0.00 0.00 0.00 55 1013.9
20260906001650 75 135 29.0 40.0 0.00 0.00 0.00 52 1014.3
20260906001149 77 151 27.0 38.0 0.00 0.00 0.00 49 1014.1
20260906000645 78 146 25.0 34.0 0.00 0.00 0.00 50 1013.9
20260906000141 79 151 35.0 38.0 0.00 0.00 0.00 50 1013.3
20260905235639 84 144 25.0 30.0 0.00 0.00 0.00 44 1013.1
20260905235135 83 148 30.0 30.0 0.00 0.00 0.00 47 1012.9
20260905234630 86 159 21.0 30.0 0.00 0.00 0.00 42 1012.4
20260905234125 91 135 33.0 45.0 0.00 0.00 0.00 36 1012.1
20260905233620 92 124 17.0 21.0 0.00 0.00 0.00 35 1012.1
20260905233114 91 132 21.0 24.0 0.00 0.00 0.00 36 1012.2
20260905232610 92 134 23.0 24.0 0.00 0.00 0.00 34 1012.1
20260905232106 91 142 19.0 23.0 0.00 0.00 0.00 35 1011.8
20260905231600 92 131 13.0 25.0 0.00 0.00 0.00 34 1012.0
20260905231057 92 141 15.0 21.0 0.00 0.00 0.00 33 1011.9
20260905230556 92 136 17.0 21.0 0.00 0.00 0.00 34 1012.0
20260905230054 92 138 14.0 24.0 0.00 0.00 0.00 34 1012.0
20260905225549 91 157 14.0 24.0 0.00 0.00 0.00 34 1011.9
20260905225044 92 144 14.0 24.0 0.00 0.00 0.00 33 1011.8
20260905224544 93 134 17.0 22.0 0.00 0.00 0.00 32 1011.6
20260905224043 93 134 11.0 25.0 0.00 0.00 0.00 32 1011.6
20260905223541 92 157 17.0 26.0 0.00 0.00 0.00 32 1011.6
20260905223036 92 154 22.0 23.0 0.00 0.00 0.00 31 1011.8
20260905222531 93 129 19.0 23.0 0.00 0.00 0.00 31 1012.1
20260905222026 93 146 16.0 18.0 0.00 0.00 0.00 30 1012.2
20260905221522 93 149 15.0 22.0 0.00 0.00 0.00 29 1012.2
20260905221018 93 132 13.0 22.0 0.00 0.00 0.00 31 1012.2
20260905220514 93 119 13.0 19.0 0.00 0.00 0.00 29 1012.0
20260905220010 93 134 15.0 19.0 0.00 0.00 0.00 32 1012.0
20260905215504 93 168 12.0 21.0 0.00 0.00 0.00 31 1012.0
20260905215000 93 122 20.0 24.0 0.00 0.00 0.00 31 1012.3
20260905214456 92 119 16.0 24.0 0.00 0.00 0.00 33 1012.4
20260905213956 92 119 17.0 23.0 0.00 0.00 0.00 31 1012.6
20260905213452 92 140 16.0 24.0 0.00 0.00 0.00 34 1012.7
20260905212947 93 143 17.0 18.0 0.00 0.00 0.00 33 1012.6
20260905212442 93 138 16.0 25.0 0.00 0.00 0.00 32 1012.7
20260905211941 93 110 11.0 21.0 0.00 0.00 0.00 32 1012.8
20260905211437 93 133 16.0 20.0 0.00 0.00 0.00 32 1012.8
20260905210933 94 130 13.0 17.0 0.00 0.00 0.00 30 1012.9
20260905210432 92 125 21.0 23.0 0.00 0.00 0.00 31 1012.9
20260905205932 93 133 10.0 25.0 0.00 0.00 0.00 31 1012.9